User: anonymous
Location: Unspecified
(0.0000°N, 0.0000°E)
Time: 17:20:41
(UTC+00:00)
Language:

CANX 3B (BRITE-ASRA) - Orbit

View from above orbital plane
View from above orbital plane
View from above satellite
View from above satellite

Ground track
Ground track

The orbit data is extracted from the following two-line orbital elements,

1 39091U 13009F   14234.54104226  .00000258  00000-0  10665-3 0  4455
2 39091 098.6181 069.0018 0010985 114.4753 245.7609 14.34715384 77848
Epoch (UTC): 22 August 2014 12:59:06
Eccentricity: 0.0010985
inclination: 98.6181°
perigee height: 768 km
apogee height: 784 km
right ascension of ascending node: 69.0018°
argument of perigee: 114.4753°
revolutions per day: 14.34715384
mean anomaly at epoch: 245.7609°
orbit number at epoch: 7784

The dashed part of the orbit path shows where the satellite is in the earth's shadow,  

DLR